Weather in Novovyazniki

Russia / Vladimir Oblast     56°11′44″N   42°10′11″E
temp.,
°C
wind,
m/s
gust,
m/s
humid.,
%
clouds,
%
prec.,
mm/h
press.,
hPa
HPBL,
m
21 june, mon
mon2100:00+20wsw22793 0.0 102112
03:00+18w22885 0.0 102214
06:00+21w12815 0.0 1021103
09:00+25sw346629 0.0 1021517
12:00+29sw344865 0.0 10211334
15:00+30sw234384 0.0 10201717
18:00+29w1263100 0.0 102083
21:00+22wsw117695 0.0 102111
22 june, tue
tue2200:00+21wsw117881 0.0 102111
03:00+19wsw118488 0.0 102211
06:00+22sw1178100 0.0 102270
09:00+25wsw1266100 0.0 1022374
12:00+28ssw2355100 0.0 10221085
15:00+30s2347100 0.0 10221269
18:00+28s256333 0.0 1020207
21:00+23ssw22770 0.0 102115
23 june, wed
wed2300:00+20ssw33750 0.0 102139
03:00+19sw22880 0.0 102113
06:00+22wnw12790 0.0 102297
09:00+27wnw23633 0.0 1022507
12:00+30w22498 0.0 10211444
15:00+32w12435 0.0 10211859
18:00+31wnw23571 0.0 1020453
21:00+24w22754 0.0 102016
24 june, thu
thu2400:00+22wnw118543 0.0 102011
03:00+21nnw118884 0.1 102111
06:00+23nw2283100 0.0 102098
09:00+28wnw236563 0.0 1020442
12:00+31wnw23485 0.0 10201492
15:00+33wnw234151 0.0 10192119
18:00+31wnw2358100 0.0 101882
21:00+24wnw22738 0.0 101713
25 june, fri
fri2500:00+21w338420 0.9 101831
03:00+21w22885 0.9 101718
06:00+22wsw2384100 0.0 1017102
09:00+27wsw35646 0.0 1016490
12:00+31w35457 0.0 10151863
15:00+32wnw454799 0.0 10152504
18:00+29wnw476092 0.0 1014251
21:00+24nw347666 0.0 101447